Flag for Uzbekistan Weather past 2 weeks in Tashkent, Uzbekistan

Now
41 °F

Fog.


Feels Like: 41 °F
Forecast: 39 / 51 °F
Wind: 1 mph from South

Location: Tashkent

Current Time: Dec 20, 2014 at 7:51:58 PM

Latest Report: Dec 20, 2014 at 7:00 PM


Visibility: 2 mi

Pressure: 30.12 "Hg

Humidity: 81%

Dew point: 36 °F

Location of TashkentLocation

Historic Weather in Tashkent — Graph

°F

Tashkent temperature yesterday

Maximum temperature yesterday: 45 °F (at 3:30 PM)
Minimum temperature yesterday: 34 °F (at 1:00 AM)
Average temperature yesterday: 37 °F

Past Weeks' High & Low Weather Summary

 TemperatureHumidityPressure
High52 °F (Dec 15, 12:30 PM)100% (Dec 7, 5:00 AM)30.95 "Hg (Dec 7, 5:00 AM)
Low10 °F (Dec 8, 8:00 AM)25% (Dec 8, 2:30 PM)30.07 "Hg (Dec 6, 10:00 AM)
Average32 °F66%30.42 "Hg
* Reported Dec 5 6:00 PM — Dec 20 6:30 PM, Tashkent, Weather by CustomWeather, © 2014

Note: Actual official high and low records may vary slightly from our data, if they occured in-between our weather recording intervals... More about our weather records

Advertising

Tashkent weather history for previous 24 hours

 ConditionsComfort  
Time TempWeatherWind HumidityBarometerVisibility
6:30 PM
Dec 20
43 °FFog.2 mph81%30.12 "Hg2 mi
6:00 PM43 °FFog.3 mph81%30.12 "Hg2 mi
5:00 PM45 °FClear.5 mph71%30.12 "Hg2 mi
4:30 PM50 °FClear.5 mph54%30.12 "Hg4 mi
4:00 PM50 °FClear.2 mph50%30.12 "Hg4 mi
3:30 PM52 °FClear.7 mph47%30.12 "Hg4 mi
3:00 PM52 °FClear.6 mph50%30.12 "Hg4 mi
2:30 PM50 °FClear.6 mph54%30.15 "Hg4 mi
2:00 PM50 °FClear.7 mph50%30.15 "Hg4 mi
1:30 PM50 °FClear.5 mph54%30.15 "Hg4 mi
1:00 PM50 °FClear.1 mph54%30.18 "Hg4 mi
12:30 PM50 °FClear.3 mph58%30.18 "Hg4 mi
12:00 PM48 °FClear.2 mph58%30.18 "Hg4 mi
11:30 AM46 °FPartly sunny.2 mph62%30.18 "Hg4 mi
11:00 AM45 °FPartly sunny.2 mph61%30.21 "Hg4 mi
10:30 AM41 °FPartly sunny.No wind76%30.21 "Hg4 mi
10:00 AM39 °FPartly sunny.2 mph75%30.21 "Hg4 mi
9:30 AM37 °FClear.2 mph75%30.21 "Hg4 mi
9:00 AM36 °FClear.5 mph81%30.21 "Hg4 mi
8:30 AM34 °FFog.7 mph87%30.21 "Hg3 mi
8:00 AM34 °FFog.7 mph87%30.21 "Hg3 mi
7:30 AM36 °FFog.7 mph87%30.21 "Hg2 mi
7:00 AM36 °FFog.3 mph87%30.24 "Hg2 mi
6:30 AM34 °FFog.3 mph93%30.24 "Hg2 mi
6:00 AM34 °FFog.2 mph93%30.24 "Hg2 mi
5:30 AM34 °FFog.3 mph93%30.24 "Hg2 mi
5:00 AM34 °FFog.1 mph93%30.21 "Hg2 mi
4:30 AM34 °FFog.2 mph87%30.21 "Hg2 mi
4:00 AM34 °FFog.3 mph93%30.21 "Hg2 mi
3:30 AM34 °FFog.3 mph81%30.24 "Hg2 mi
3:00 AM36 °FFog.No wind81%30.24 "Hg2 mi
2:30 AM37 °FFog.3 mph75%30.24 "Hg2 mi
2:00 AM34 °FFog.3 mph81%30.24 "Hg2 mi
1:30 AM36 °FFog.5 mph81%30.24 "Hg2 mi
1:00 AM37 °FFog.5 mph75%30.24 "Hg2 mi
12:30 AM36 °FFog.5 mph87%30.24 "Hg2 mi
12:00 AM37 °FFog.5 mph75%30.24 "Hg2 mi
11:30 PM
Dec 19
36 °FFog.3 mph81%30.27 "Hg2 mi
11:00 PM37 °FFog.5 mph75%30.27 "Hg2 mi
10:30 PM34 °FFog.7 mph87%30.27 "Hg2 mi
10:00 PM37 °FFog.6 mph81%30.27 "Hg2 mi
9:30 PM36 °FFog.5 mph81%30.27 "Hg2 mi
9:00 PM37 °FFog.5 mph81%30.30 "Hg2 mi
8:30 PM37 °FFog.5 mph75%30.30 "Hg2 mi
8:00 PM39 °FFog.7 mph75%30.30 "Hg2 mi
7:30 PM39 °FClear.3 mph70%30.30 "Hg10 mi
7:00 PM39 °FClear.3 mph70%30.30 "Hg10 mi
Weather by CustomWeather, © 2014

See weather overviewHow to use our weather pages